Flag for Saint Kitts and Nevis Weather past 2 weeks in Basseterre, Saint Kitts and Nevis

Now
82 °F

Scattered showers. Scattered clouds.


Feels Like: 87 °F
Forecast: 78 / 81 °F
Wind: 20 mph from Northeast

Location: Golden Rock


UV Index: 7 (High)

Visibility: N/A


Pressure: 30.07 "Hg

Humidity: 70%

Dew point: 72 °F

Location of BasseterreLocation

Historic Weather in Basseterre

°F

Basseterre temperature yesterday

Maximum temperature yesterday: 82 °F (at 12:00 PM)
Minimum temperature yesterday: 73 °F (at 6:00 AM)
Average temperature yesterday: 78 °F

Past Weeks' High & Low Weather Summary

 TemperatureHumidityPressure
High84 °F (Apr 3, 12:00 PM)100% (Apr 5, 10:00 AM)30.12 "Hg (Apr 5, 10:00 AM)
Low72 °F (Apr 5, 9:00 AM)55% (Apr 10, 2:00 PM)29.89 "Hg (Apr 15, 3:00 PM)
Average79 °F74%30.02 "Hg
* Reported Apr 3 10:00 AM — Apr 18 10:00 AM, Basseterre, Weather by CustomWeather, © 2014

Note: Actual official high and low records may vary slightly from our data, if they occured in-between our weather recording intervals... More about our weather records

Advertising

Historic Weather Conditions — Data for Previous 24 hours

 ConditionsComfort  
Time TempWeatherWind HumidityBarometerVisibility
10:00 AM
Apr 18
82 °FScattered showers. Scattered clouds.20 mph70%30.07 "HgN/A
9:00 AM82 °FScattered clouds.18 mph66%30.07 "HgN/A
8:00 AM81 °FScattered clouds.17 mph70%30.04 "HgN/A
7:00 AM77 °FPartly sunny.18 mph79%30.04 "HgN/A
6:00 AM75 °FScattered clouds.14 mph83%N/AN/A
11:00 PM
Apr 17
77 °FPassing clouds.16 mph83%30.07 "HgN/A
10:00 PM77 °FPassing clouds.18 mph79%30.04 "HgN/A
9:00 PM77 °FPassing clouds.16 mph79%30.04 "HgN/A
8:00 PM77 °FPassing clouds.17 mph79%30.04 "HgN/A
7:00 PM77 °FPassing clouds.13 mph79%30.01 "HgN/A
6:00 PM75 °FScattered clouds.7 mph89%30.01 "HgN/A
5:00 PM81 °FScattered clouds.9 mph74%30.01 "HgN/A
4:00 PM81 °FScattered showers. Scattered clouds.13 mph74%30.01 "HgN/A
3:00 PM82 °FScattered showers. Scattered clouds.18 mph74%29.98 "HgN/A
2:00 PM82 °FScattered clouds.17 mph70%30.01 "HgN/A
1:00 PM82 °FScattered clouds.18 mph66%30.04 "HgN/A
12:00 PM82 °FScattered showers. Scattered clouds.14 mph74%30.04 "HgN/A
11:00 AM81 °FPassing clouds.12 mph74%30.04 "HgN/A
Weather by CustomWeather, © 2014

See weather overview